GW1765 Weather Reports


time (UTC)temp
C
wind
direction
speed
KPH
gust
KPH
rain 1hr
cm
rain 24hr
cm
rain mn
cm
humidity
%
barometer
mb
20260505190015 15 14 12.9 22.5 0.00 0.00 0.00 84 1029.6
20260505185113 15 22 11.3 17.7 0.00 0.00 0.00 84 1029.6
20260505183107 15 348 14.5 20.9 0.00 0.00 0.00 84 1029.6
20260505182125 15 351 11.3 17.7 0.00 0.00 0.00 85 1029.6
20260505181121 15 358 14.5 22.5 0.00 0.00 0.00 85 1029.7
20260505180055 15 359 14.5 24.1 0.00 0.00 0.00 85 1029.7
20260505175054 15 350 14.5 24.1 0.00 0.00 0.00 85 1029.7
20260505174048 15 12 12.9 20.9 0.00 0.00 0.00 86 1029.7
20260505173045 15 344 16.1 24.1 0.00 0.00 0.00 87 1029.8
20260505172041 15 345 16.1 27.4 0.00 0.00 0.00 88 1029.8
20260505171038 15 349 16.1 22.5 0.00 0.00 0.00 89 1029.7
20260505170056 15 315 12.9 17.7 0.00 0.00 0.00 90 1029.6
20260505165055 -17 0.0 0.0 0.00 0.00 0.00 1029.6
20260505164030 -17 0.0 0.0 0.00 0.00 0.00 1029.6
20260505163025 14 0 6.4 9.7 0.00 0.00 0.00 85 1029.8
20260505162021 14 351 8.0 12.9 0.00 0.00 0.00 85 1029.8
20260505161018 14 356 11.3 17.7 0.00 0.00 0.00 84 1029.9
20260505160114 15 357 17.7 27.4 0.00 0.00 0.00 82 1030.0
20260505153104 15 12 12.9 22.5 0.00 0.00 0.00 81 1030.2
20260505152101 15 349 14.5 29.0 0.00 0.00 0.00 81 1030.3
20260505151057 15 360 14.5 22.5 0.00 0.00 0.00 81 1030.5
20260505130112 15 1 12.9 20.9 0.00 0.00 0.00 74 1031.3
20260505124105 15 356 11.3 19.3 0.00 0.00 0.00 75 1031.4
20260505123104 15 12 11.3 17.7 0.00 0.00 0.00 76 1031.4
20260505122058 15 26 12.9 20.9 0.00 0.00 0.00 77 1031.3
20260505121056 15 5 9.7 16.1 0.00 0.00 0.00 80 1031.3
20260505120053 14 23 9.7 14.5 0.00 0.00 0.00 80 1031.3
20260505115108 14 30 11.3 17.7 0.00 0.00 0.00 80 1031.2
20260505114105 14 25 8.0 12.9 0.00 0.00 0.00 80 1031.3
20260505113041 14 21 4.8 12.9 0.00 0.00 0.00 78 1031.4
20260505112038 15 16 9.7 20.9 0.00 0.00 0.00 75 1031.6
20260505111056 15 356 12.9 24.1 0.00 0.00 0.00 72 1031.7
20260505102019 15 5 8.0 14.5 0.00 0.00 0.00 71 1031.9
20260505101117 15 3 8.0 14.5 0.00 0.00 0.00 71 1031.8
20260505100111 15 14 8.0 12.9 0.00 0.00 0.00 71 1031.8
20260505095110 15 10 6.4 12.9 0.00 0.00 0.00 71 1031.7
20260505094104 15 11 9.7 17.7 0.00 0.00 0.00 71 1031.8
20260505093122 15 349 9.7 19.3 0.00 0.00 0.00 71 1031.8
20260505092057 15 0 6.4 9.7 0.00 0.00 0.00 71 1031.6
20260505091056 15 358 6.4 11.3 0.00 0.00 0.00 71 1031.7
20260505090051 15 3 8.0 12.9 0.00 0.00 0.00 71 1031.7
20260505085050 15 7 6.4 12.9 0.00 0.00 0.00 71 1031.7
20260505084045 15 8 8.0 11.3 0.00 0.00 0.00 72 1031.6
20260505083101 15 5 6.4 11.3 0.00 0.00 0.00 73 1031.6
20260505082036 14 3 4.8 8.0 0.00 0.00 0.00 73 1031.8
20260505081033 14 23 3.2 6.4 0.00 0.00 0.00 72 1031.7
20260505080030 14 58 6.4 11.3 0.00 0.00 0.00 72 1031.7
20260505075029 15 43 6.4 12.9 0.00 0.00 0.00 72 1031.8
20260505074025 15 60 4.8 11.3 0.00 0.00 0.00 72 1031.8
20260505073025 15 21 4.8 8.0 0.00 0.00 0.00 72 1031.8
20260505072021 14 24 6.4 12.9 0.00 0.00 0.00 74 1031.8
20260505071020 14 35 6.4 14.5 0.00 0.00 0.00 77 1031.8
20260505070018 13 20 6.4 11.3 0.00 0.00 0.00 80 1031.8
20260505065115 13 36 6.4 9.7 0.00 0.00 0.00 81 1031.8
20260505064133 13 13 4.8 8.0 0.00 0.00 0.00 80 1031.8
20260505063103 13 45 1.6 4.8 0.00 0.00 0.00 79 1031.8
20260505062103 13 45 3.2 4.8 0.00 0.00 0.00 78 1031.8
20260505061114 13 26 3.2 6.4 0.00 0.00 0.00 75 1031.7
20260505060054 13 69 3.2 6.4 0.00 0.00 0.00 72 1031.6
20260505055052 13 50 3.2 4.8 0.00 0.00 0.00 70 1031.5
20260505054042 15 82 1.6 4.8 0.00 0.00 0.00 64 1031.4
20260505053039 17 128 1.6 4.8 0.00 0.00 0.00 56 1031.5
20260505052037 20 135 1.6 3.2 0.00 0.00 0.00 53 1031.5
20260505051050 21 135 3.2 4.8 0.00 0.00 0.00 56 1031.5
20260505041103 16 279 1.6 6.4 0.00 0.00 0.00 72 1031.8
20260505040101 16 310 4.8 6.4 0.00 0.00 0.00 72 1031.8
20260505035054 16 310 6.4 9.7 0.00 0.00 0.00 72 1031.8
20260505034051 16 315 8.0 12.9 0.00 0.00 0.00 71 1031.9
20260505033041 16 312 11.3 14.5 0.00 0.00 0.00 69 1031.8
20260505032041 17 319 14.5 19.3 0.00 0.00 0.00 60 1031.8
20260505031028 20 311 8.0 17.7 0.00 0.00 0.00 54 1031.7
20260505030019 20 314 6.4 17.7 0.00 0.00 0.00 53 1031.7
20260505025116 19 320 8.0 11.3 0.00 0.00 0.00 52 1031.8
20260505024109 20 324 8.0 16.1 0.00 0.00 0.00 51 1031.8
20260505023104 21 345 6.4 12.9 0.00 0.00 0.00 51 1031.8
20260505022054 20 320 4.8 14.5 0.00 0.00 0.00 53 1032.0
20260505021051 19 349 6.4 12.9 0.00 0.00 0.00 55 1032.1
20260505020049 18 324 9.7 12.9 0.00 0.00 0.00 54 1032.3
20260505015041 18 333 6.4 9.7 0.00 0.00 0.00 53 1032.3
20260505014039 18 318 9.7 12.9 0.00 0.00 0.00 52 1032.4
20260505013030 18 319 8.0 14.5 0.00 0.00 0.00 51 1032.5
20260505012027 19 315 9.7 14.5 0.00 0.00 0.00 50 1032.7
20260505011017 20 322 8.0 12.9 0.00 0.00 0.00 49 1032.7
20260505010115 20 329 8.0 17.7 0.00 0.00 0.00 50 1032.9
20260505005128 20 289 6.4 11.3 0.00 0.00 0.00 50 1033.0
20260505004105 18 319 9.7 16.1 0.00 0.00 0.00 51 1033.1
20260505003102 19 342 9.7 14.5 0.00 0.00 0.00 49 1033.3
20260505002055 19 328 8.0 12.9 0.00 0.00 0.00 50 1033.5
20260505001051 19 325 4.8 11.3 0.00 0.00 0.00 50 1033.6
20260505000041 18 351 11.3 17.7 0.00 0.00 0.00 50 1033.9
20260504235038 19 325 8.0 17.7 0.00 0.00 0.00 47 1034.0
20260504234030 20 316 6.4 12.9 0.00 0.00 0.00 45 1034.2
20260504233027 20 332 4.8 11.3 0.00 0.00 0.00 45 1034.4
20260504232027 19 334 4.8 8.0 0.00 0.00 0.00 46 1034.4
20260504231016 20 330 6.4 11.3 0.00 0.00 0.00 42 1034.6
20260504230116 22 318 3.2 6.4 0.00 0.00 0.00 36 1034.8
20260504225106 25 203 1.6 4.8 0.00 0.00 0.00 37 1034.9
20260504224103 25 211 1.6 3.2 0.00 0.00 0.00 36 1034.8
20260504223101 25 221 1.6 6.4 0.00 0.00 0.00 38 1035.0
20260504222053 25 217 1.6 4.8 0.00 0.00 0.00 40 1034.9
20260504221050 24 201 1.6 4.8 0.00 0.00 0.00 41 1035.0
20260504215041 21 116 3.2 6.4 0.00 0.00 0.00 46 1035.2
20260504214101 20 78 4.8 6.4 0.00 0.00 0.00 47 1035.2
20260504213037 20 77 3.2 6.4 0.00 0.00 0.00 48 1035.3
20260504212029 21 57 1.6 6.4 0.00 0.00 0.00 51 1035.4
20260504211028 20 85 1.6 3.2 0.00 0.00 0.00 52 1035.3
20260504210025 18 75 3.2 4.8 0.00 0.00 0.00 53 1035.4
20260504205017 18 74 3.2 4.8 0.00 0.00 0.00 59 1035.5
20260504204018 16 88 1.6 4.8 0.00 0.00 0.00 65 1035.6
20260504203114 15 90 3.2 6.4 0.00 0.00 0.00 74 1035.7
20260504202105 13 90 3.2 6.4 0.00 0.00 0.00 80 1035.7
20260504201104 11 90 4.8 6.4 0.00 0.00 0.00 85 1035.6
20260504200101 9 86 3.2 6.4 0.00 0.00 0.00 85 1035.6
20260504195055 8 109 4.8 6.4 0.00 0.00 0.00 83 1035.5
20260504194051 8 102 3.2 6.4 0.00 0.00 0.00 82 1035.4
20260504193112 8 85 3.2 6.4 0.00 0.00 0.00 81 1035.4
20260504192042 8 88 3.2 6.4 0.00 0.00 0.00 81 1035.4
20260504191039 9 57 3.2 4.8 0.00 0.00 0.00 81 1035.3
20260504190039 10 79 3.2 6.4 0.00 0.00 0.00 81 1035.2